timestamp,surface_pressure_avg,surface_temp_avg,battery_voltage,lat,long
2018-05-30 00:00:00+00:00,375.0013,6.07,13.05,47.84626,-54.09684
2018-05-30 00:10:00+00:00,375.4979,6.08,12.97,47.84626,-54.09684
2018-05-30 00:20:00+00:00,377.7746,6.08,13.05,47.84626,-54.09684
2018-05-30 00:30:00+00:00,380.2645,6.07,13.05,47.84626,-54.09684
2018-05-30 00:40:00+00:00,379.8713,6.09,13.05,47.84626,-54.09684
2018-05-30 00:50:00+00:00,375.4196,6.1,13.05,47.84626,-54.09684
2018-05-30 01:00:00+00:00,373.0394,6.1,12.97,47.84626,-54.09684
2018-05-30 01:10:00+00:00,373.4795,6.1,12.89,47.84626,-54.09684
2018-05-30 01:20:00+00:00,367.1062,6.1,12.97,47.84626,-54.09684
2018-05-30 01:30:00+00:00,360.3696,6.14,12.97,47.84626,-54.09684
2018-05-30 01:40:00+00:00,354.7562,6.15,12.97,47.84626,-54.09684
2018-05-30 01:50:00+00:00,349.3695,6.13,13.05,47.84626,-54.09684
2018-05-30 02:00:00+00:00,342.9713,6.12,12.97,47.84626,-54.09684
2018-05-30 02:10:00+00:00,339.048,6.13,12.89,47.84626,-54.09684
2018-05-30 02:20:00+00:00,332.3496,6.14,12.97,47.84626,-54.09684
2018-05-30 02:30:00+00:00,322.7646,6.17,12.97,47.84626,-54.09684
2018-05-30 02:40:00+00:00,315.3063,6.19,12.97,47.84626,-54.09684
2018-05-30 02:50:00+00:00,307.6896,6.2,12.97,47.84626,-54.09684
2018-05-30 03:00:00+00:00,297.0013,6.2,12.97,47.84626,-54.09684
2018-05-30 03:10:00+00:00,287.7214,6.45,12.89,47.84626,-54.09684
2018-05-30 03:20:00+00:00,279.5114,6.59,12.97,47.84626,-54.09684
2018-05-30 03:30:00+00:00,264.958,6.6,12.97,47.84626,-54.09684
2018-05-30 03:40:00+00:00,256.5931,6.6,12.97,47.84626,-54.09684
2018-05-30 03:50:00+00:00,254.6931,6.56,12.97,47.84626,-54.09684
2018-05-30 04:00:00+00:00,248.3514,6.54,12.89,47.84626,-54.09684
2018-05-30 04:10:00+00:00,236.4031,6.5,12.81,47.84626,-54.09684
2018-05-30 04:20:00+00:00,230.6764,6.5,12.89,47.84626,-54.09684
2018-05-30 04:30:00+00:00,228.6697,6.5,12.89,47.84626,-54.09684
2018-05-30 04:40:00+00:00,221.8547,6.49,12.97,47.84626,-54.09684
2018-05-30 04:50:00+00:00,213.1014,6.47,12.97,47.84626,-54.09684
2018-05-30 05:00:00+00:00,207.3748,6.47,12.89,47.84626,-54.09684
2018-05-30 05:10:00+00:00,203.6814,6.5,12.81,47.84626,-54.09684
2018-05-30 05:20:00+00:00,202.7331,6.5,12.89,47.84626,-54.09684
2018-05-30 05:30:00+00:00,204.3548,6.4,12.89,47.84626,-54.09684
2018-05-30 05:40:00+00:00,205.7964,6.4,12.97,47.84626,-54.09684
2018-05-30 05:50:00+00:00,205.2431,6.4,12.97,47.84626,-54.09684
2018-05-30 06:00:00+00:00,204.7848,6.6,12.89,47.84626,-54.09684
2018-05-30 06:10:00+00:00,207.8648,6.8,12.81,47.84626,-54.09684
2018-05-30 06:20:00+00:00,211.4897,6.89,12.89,47.84626,-54.09684
2018-05-30 06:30:00+00:00,213.1898,6.9,12.89,47.84626,-54.09684
2018-05-30 06:40:00+00:00,216.7947,6.91,12.97,47.84626,-54.09684
2018-05-30 06:50:00+00:00,220.1181,6.9,12.97,47.84626,-54.09684
2018-05-30 07:00:00+00:00,222.0797,6.8,12.89,47.84626,-54.09684
2018-05-30 07:10:00+00:00,224.4431,6.74,12.81,47.84626,-54.09684
2018-05-30 07:20:00+00:00,227.4514,6.7,12.89,47.84626,-54.09684
2018-05-30 07:30:00+00:00,228.8564,6.6,12.89,47.84626,-54.09684
2018-05-30 07:40:00+00:00,230.6031,6.6,12.89,47.84626,-54.09684
2018-05-30 07:50:00+00:00,232.9931,6.6,12.97,47.84626,-54.09684
2018-05-30 08:00:00+00:00,232.4497,6.58,12.89,47.84626,-54.09684
2018-05-30 08:10:00+00:00,233.1048,6.61,12.81,47.84626,-54.09684
2018-05-30 08:20:00+00:00,235.3231,6.6,12.89,47.84626,-54.09684
2018-05-30 08:30:00+00:00,236.1747,6.6,12.89,47.84626,-54.09684
2018-05-30 08:40:00+00:00,237.9931,6.6,12.89,47.84626,-54.09684
2018-05-30 08:50:00+00:00,243.2481,6.52,12.97,47.84626,-54.09684
2018-05-30 09:00:00+00:00,248.4264,6.5,12.89,47.84626,-54.09684
2018-05-30 09:10:00+00:00,251.6331,6.5,12.81,47.84626,-54.09684
2018-05-30 09:20:00+00:00,256.4231,6.4,12.89,47.84626,-54.09684
2018-05-30 09:30:00+00:00,264.2314,6.34,12.97,47.84626,-54.09684
2018-05-30 09:40:00+00:00,269.1364,6.4,12.97,47.84626,-54.09684
2018-05-30 09:50:00+00:00,273.2814,6.4,12.97,47.84626,-54.09684
2018-05-30 10:00:00+00:00,278.1263,6.45,12.97,47.84626,-54.09684
2018-05-30 10:10:00+00:00,284.4948,6.4,12.89,47.84626,-54.09684
2018-05-30 10:20:00+00:00,289.838,6.3,12.97,47.84626,-54.09684
2018-05-30 10:30:00+00:00,295.523,6.2,12.97,47.84626,-54.09684
2018-05-30 10:40:00+00:00,306.3163,6.1,13.05,47.84626,-54.09684
2018-05-30 10:50:00+00:00,317.5213,6.06,13.05,47.84626,-54.09684
2018-05-30 11:00:00+00:00,322.2413,6.22,12.97,47.84626,-54.09684
2018-05-30 11:10:00+00:00,326.008,6.0,12.97,47.84626,-54.09684
2018-05-30 11:20:00+00:00,328.5646,5.95,13.05,47.84626,-54.09684
2018-05-30 11:30:00+00:00,329.053,6.0,13.05,47.84626,-54.09684
2018-05-30 11:40:00+00:00,329.978,6.29,13.13,47.84626,-54.09684
2018-05-30 11:50:00+00:00,333.2347,6.3,13.21,47.84626,-54.09684
2018-05-30 12:00:00+00:00,333.9897,6.06,13.21,47.84626,-54.09684
2018-05-30 12:10:00+00:00,331.6646,5.9,13.21,47.84626,-54.09684
2018-05-30 12:20:00+00:00,334.5379,5.8,13.29,47.84626,-54.09684
2018-05-30 12:30:00+00:00,339.0996,5.85,13.29,47.84626,-54.09684
2018-05-30 12:40:00+00:00,339.0547,5.91,13.37,47.84626,-54.09684
2018-05-30 12:50:00+00:00,334.9014,5.5,13.44,47.84626,-54.09684
2018-05-30 13:00:00+00:00,332.823,5.5,13.37,47.84626,-54.09684
2018-05-30 13:10:00+00:00,333.3846,5.5,13.29,47.84626,-54.09684
2018-05-30 13:20:00+00:00,331.108,5.61,13.37,47.84626,-54.09684
2018-05-30 13:30:00+00:00,326.7847,5.8,13.37,47.84626,-54.09684
2018-05-30 13:40:00+00:00,324.218,5.8,13.37,47.84626,-54.09684
2018-05-30 13:50:00+00:00,320.9797,5.82,13.53,47.84626,-54.09684
2018-05-30 14:00:00+00:00,319.1047,6.05,13.6,47.84626,-54.09684
2018-05-30 14:10:00+00:00,313.8196,6.13,13.53,47.84626,-54.09684
2018-05-30 14:20:00+00:00,309.1613,6.0,13.68,47.84626,-54.09684
2018-05-30 14:30:00+00:00,304.9114,5.9,13.76,47.84626,-54.09684
2018-05-30 14:40:00+00:00,299.963,5.8,13.84,47.84626,-54.09684
2018-05-30 14:50:00+00:00,291.7681,5.8,13.84,47.84626,-54.09684
2018-05-30 15:00:00+00:00,282.9164,5.81,13.76,47.84626,-54.09684
2018-05-30 15:10:00+00:00,275.0547,5.98,13.68,47.84626,-54.09684
2018-05-30 15:20:00+00:00,264.8314,6.0,13.76,47.84626,-54.09684
2018-05-30 15:30:00+00:00,255.7747,5.8,13.84,47.84626,-54.09684
2018-05-30 15:40:00+00:00,249.7814,5.7,13.92,47.84626,-54.09684
2018-05-30 15:50:00+00:00,243.1598,5.7,14.0,47.84626,-54.09684
2018-05-30 16:00:00+00:00,232.3331,5.52,13.92,47.84626,-54.09684
2018-05-30 16:10:00+00:00,221.0448,5.42,13.84,47.84626,-54.09684
2018-05-30 16:20:00+00:00,212.3398,5.45,14.0,47.84626,-54.09684
2018-05-30 16:30:00+00:00,206.1615,5.53,14.0,47.84626,-54.09684
2018-05-30 16:40:00+00:00,201.9048,5.7,14.0,47.84626,-54.09684
2018-05-30 16:50:00+00:00,199.7898,5.79,14.0,47.84626,-54.09684
2018-05-30 17:00:00+00:00,197.0015,5.76,13.92,47.84626,-54.09684
2018-05-30 17:10:00+00:00,191.7131,5.7,13.84,47.84626,-54.09684
2018-05-30 17:20:00+00:00,186.8382,5.7,13.92,47.84626,-54.09684
2018-05-30 17:30:00+00:00,184.8931,5.6,13.92,47.84626,-54.09684
2018-05-30 17:40:00+00:00,181.8398,5.6,14.0,47.84626,-54.09684
2018-05-30 17:50:00+00:00,179.1965,5.5,14.0,47.84626,-54.09684
2018-05-30 18:00:00+00:00,180.4631,5.54,13.92,47.84626,-54.09684
2018-05-30 18:10:00+00:00,180.9532,5.6,13.84,47.84626,-54.09684
2018-05-30 18:20:00+00:00,178.4348,5.59,13.92,47.84626,-54.09684
2018-05-30 18:30:00+00:00,180.5448,5.5,13.84,47.84626,-54.09684
2018-05-30 18:40:00+00:00,188.4098,5.5,13.92,47.84626,-54.09684
2018-05-30 18:50:00+00:00,191.0498,5.5,14.0,47.84626,-54.09684
2018-05-30 19:00:00+00:00,191.5464,5.5,13.92,47.84626,-54.09684
2018-05-30 19:10:00+00:00,199.1331,5.5,13.76,47.84626,-54.09684
2018-05-30 19:20:00+00:00,206.4998,5.47,13.84,47.84626,-54.09684
2018-05-30 19:30:00+00:00,207.3149,5.49,13.92,47.84626,-54.09684
2018-05-30 19:40:00+00:00,210.3481,5.26,14.08,47.84626,-54.09684
2018-05-30 19:50:00+00:00,216.6781,5.0,14.16,47.84626,-54.09684
2018-05-30 20:00:00+00:00,222.5548,5.17,14.08,47.84626,-54.09684
2018-05-30 20:10:00+00:00,225.5797,5.1,13.92,47.84626,-54.09684
2018-05-30 20:20:00+00:00,233.4481,5.13,14.0,47.84626,-54.09684
2018-05-30 20:30:00+00:00,242.5931,5.2,14.0,47.84626,-54.09684
2018-05-30 20:40:00+00:00,248.5631,5.2,14.08,47.84626,-54.09684
2018-05-30 20:50:00+00:00,252.5181,4.98,14.16,47.84626,-54.09684
2018-05-30 21:00:00+00:00,259.6914,4.85,14.0,47.84626,-54.09684
2018-05-30 21:10:00+00:00,266.1331,4.96,13.92,47.84626,-54.09684
2018-05-30 21:20:00+00:00,268.8198,5.1,14.0,47.84626,-54.09684
2018-05-30 21:30:00+00:00,270.7997,5.08,14.0,47.84626,-54.09684
2018-05-30 21:40:00+00:00,276.3731,5.03,14.0,47.84626,-54.09684
2018-05-30 21:50:00+00:00,282.743,4.61,14.0,47.84626,-54.09684
2018-05-30 22:00:00+00:00,289.3614,3.6,13.92,47.84626,-54.09684
2018-05-30 22:10:00+00:00,298.973,3.6,13.76,47.84626,-54.09684
2018-05-30 22:20:00+00:00,311.7479,3.5,13.84,47.84626,-54.09684
2018-05-30 22:30:00+00:00,321.6597,3.4,13.84,47.84626,-54.09684
2018-05-30 22:40:00+00:00,328.423,3.28,13.84,47.84626,-54.09684
2018-05-30 22:50:00+00:00,334.798,3.1,13.76,47.84626,-54.09684
2018-05-30 23:00:00+00:00,343.4464,3.18,13.68,47.84626,-54.09684
2018-05-30 23:10:00+00:00,351.6563,3.2,13.53,47.84626,-54.09684
2018-05-30 23:20:00+00:00,357.0629,3.09,13.53,47.84626,-54.09684
2018-05-30 23:30:00+00:00,359.2279,3.0,13.44,47.84626,-54.09684
2018-05-30 23:40:00+00:00,360.4996,2.9,13.44,47.84626,-54.09684
2018-05-30 23:50:00+00:00,362.3613,2.98,13.44,47.84626,-54.09684
